This is the latest recevied weather packets stored in our database for station/object DB0TGO-13. If no packets are shown the sender has not sent any weather packets the latest 10 day(s).
| Time | Temp. | Humidity | Pressure | Rain* | Wind** | Luminosity | Snow |
|---|---|---|---|---|---|---|---|
| 1778164202 | 9.44° C | 73% | 1009.9 hPa | - | - | - | - |
| 1778163302 | 9.44° C | 74% | 1009.8 hPa | - | - | - | - |
| 1778162402 | 9.44° C | 74% | 1009.8 hPa | - | - | - | - |
| 1778161502 | 8.89° C | 74% | 1009.7 hPa | - | - | - | - |
| 1778160603 | 8.89° C | 74% | 1009.7 hPa | - | - | - | - |
| 1778159702 | 8.89° C | 76% | 1009.5 hPa | - | - | - | - |
| 1778158803 | 8.89° C | 76% | 1009.5 hPa | - | - | - | - |
| 1778157902 | 8.33° C | 77% | 1009.5 hPa | - | - | - | - |
| 1778157003 | 8.33° C | 77% | 1009.5 hPa | - | - | - | - |
| 1778156102 | 8.33° C | 77% | 1009.2 hPa | - | - | - | - |
| 1778155202 | 8.33° C | 77% | 1009.2 hPa | - | - | - | - |
| 1778154302 | 8.33° C | 77% | 1009.1 hPa | - | - | - | - |
| 1778153402 | 8.33° C | 77% | 1009.1 hPa | - | - | - | - |
| 1778152502 | 7.78° C | 81% | 1008.9 hPa | - | - | - | - |
| 1778151602 | 7.78° C | 81% | 1008.9 hPa | - | - | - | - |
| 1778150703 | 8.33° C | 81% | 1008.6 hPa | - | - | - | - |
| 1778149803 | 8.33° C | 81% | 1008.6 hPa | - | - | - | - |
| 1778148902 | 8.33° C | 79% | 1008.2 hPa | - | - | - | - |
| 1778148002 | 8.33° C | 79% | 1008.2 hPa | - | - | - | - |
| 1778147102 | 7.78° C | 81% | 1007.9 hPa | - | - | - | - |
| 1778146203 | 7.78° C | 81% | 1007.9 hPa | - | - | - | - |
| 1778145302 | 7.78° C | 79% | 1007.5 hPa | - | - | - | - |
| 1778144402 | 7.78° C | 79% | 1007.5 hPa | - | - | - | - |
| 1778143503 | 7.78° C | 78% | 1007.2 hPa | - | - | - | - |
| 1778142602 | 7.78° C | 78% | 1007.2 hPa | - | - | - | - |
* Rain since midnight (hover to see other rain measurements)
** Current wind speed in m/s (hover to see current wind gust speed)